Location: STAR School
(35.3054°N, 111.2976°W)
Time: 01:13:54
(UTC-07:00)

Tiros 1 - All Passes

Search period start: 24 May 2019 00:00
Search period end: 03 June 2019 00:00
Orbit: 630 x 664 km, 48.4° (Epoch: 24 May)

Date Brightness Start Highest point End Pass type
(mag) Time Alt. Az. Time Alt. Az. Time Alt. Az.
24 May - 08:24:54 10° SSE 08:27:35 15° SE 08:30:16 10° E daylight
24 May - 10:04:38 10° SW 10:09:15 82° NW 10:13:56 10° NE daylight
24 May - 11:48:15 10° WNW 11:51:59 23° NNW 11:55:45 10° NE daylight
24 May - 13:32:34 10° NW 13:35:31 16° N 13:38:28 10° NE daylight
24 May - 15:14:50 10° NW 15:18:55 28° NNE 15:23:01 10° E daylight
24 May - 16:56:43 10° WNW 17:01:27 72° SW 17:06:12 10° SE daylight
24 May - 18:42:04 10° WSW 18:43:01 11° SW 18:43:58 10° SW daylight
25 May - 08:49:04 10° SSW 08:53:20 38° SE 08:57:37 10° ENE daylight
25 May - 10:31:08 10° W 10:35:29 40° NNW 10:39:54 10° NE daylight
25 May - 12:15:32 10° NW 12:18:40 17° N 12:21:49 10° NNE daylight
25 May - 13:58:55 10° NNW 14:02:16 19° NNE 14:05:38 10° ENE daylight
25 May - 15:40:43 10° NW 15:45:19 49° NNE 15:49:57 10° ESE daylight
25 May - 17:23:14 10° WNW 17:27:22 30° SW 17:31:30 10° SSE daylight
26 May - 07:35:20 10° SSE 07:37:39 14° SE 07:39:58 10° E daylight
26 May - 09:14:40 10° SW 09:19:17 89° NNW 09:23:57 10° NE daylight
26 May - 10:58:11 10° WNW 11:01:57 24° NNW 11:05:46 10° NE daylight
26 May - 12:42:32 10° NW 12:45:27 16° N 12:48:23 10° NE daylight
26 May - 14:24:53 10° NW 14:28:53 27° NNE 14:32:55 10° E daylight
26 May - 16:06:44 10° NW 16:11:28 78° SW 16:16:14 10° SE daylight
26 May - 17:51:22 10° WSW 17:53:04 12° SW 17:54:47 10° SSW daylight
27 May - 07:59:13 10° SSW 08:03:22 34° SE 08:07:34 10° ENE daylight
27 May - 09:41:06 10° WSW 09:45:29 42° NNW 09:49:56 10° NE daylight
27 May - 11:25:27 10° NW 11:28:37 18° N 11:31:48 10° NNE daylight
27 May - 13:08:57 10° NNW 13:12:13 18° NNE 13:15:30 10° NE daylight
27 May - 14:50:46 10° NW 14:55:18 46° NNE 14:59:53 10° ESE daylight
27 May - 16:33:11 10° WNW 16:37:24 32° SW 16:41:38 10° SSE daylight
28 May - 06:45:50 10° SSE 06:47:43 12° SE 06:49:36 10° ESE daylight
28 May - 08:24:42 10° SW 08:29:19 84° SE 08:33:58 10° NE daylight
28 May - 10:08:06 10° WNW 10:11:56 25° NNW 10:15:48 10° NE daylight
28 May - 11:52:30 10° NW 11:55:24 16° N 11:58:18 10° NE daylight
28 May - 13:34:56 10° NW 13:38:51 25° NNE 13:42:48 10° ENE daylight
28 May - 15:16:45 10° NW 15:21:29 85° SW 15:26:14 10° SE daylight
28 May - 17:00:57 10° W 17:03:08 13° SW 17:05:19 10° SSW daylight
29 May - 07:09:21 10° SSW 07:13:25 31° SE 07:17:30 10° ENE daylight
29 May - 08:51:04 10° WSW 08:55:29 45° NNW 08:59:57 10° NE daylight
29 May - 10:35:22 10° NW 10:38:34 18° N 10:41:47 10° NNE daylight
29 May - 12:18:59 10° NNW 12:22:10 18° N 12:25:22 10° NE daylight
29 May - 14:00:49 10° NW 14:05:18 43° NNE 14:09:49 10° ESE daylight
29 May - 15:43:08 10° WNW 15:47:26 35° SW 15:51:45 10° SSE daylight
30 May - 05:56:32 10° SE 05:57:47 11° SE 05:59:02 10° ESE daylight
30 May - 07:34:45 10° SW 07:39:20 77° SE 07:43:58 10° NE daylight
30 May - 09:18:01 10° W 09:21:54 26° NNW 09:25:49 10° NE daylight
30 May - 11:02:28 10° NW 11:05:21 16° N 11:08:13 10° NE daylight
30 May - 12:45:00 10° NW 12:48:49 24° NNE 12:52:41 10° ENE daylight
30 May - 14:26:46 10° NW 14:31:30 89° NE 14:36:15 10° SE daylight
30 May - 16:10:38 10° W 16:13:11 14° SW 16:15:45 10° SSW daylight
31 May - 06:19:32 10° SSW 06:23:28 29° SE 06:27:26 10° ENE daylight
31 May - 08:01:02 10° WSW 08:05:29 49° NNW 08:09:59 10° NE daylight
31 May - 09:45:17 10° WNW 09:48:32 18° NNW 09:51:47 10° NNE daylight
31 May - 11:29:00 10° NNW 11:32:07 17° N 11:35:15 10° NE daylight
31 May - 13:10:52 10° NW 13:15:17 40° NNE 13:19:44 10° E daylight
31 May - 14:53:06 10° WNW 14:57:28 39° SW 15:01:51 10° SSE daylight
01 Jun - 06:44:48 10° SW 06:49:22 71° SE 06:53:58 10° ENE daylight
01 Jun - 08:27:55 10° W 08:31:53 27° NNW 08:35:51 10° NE daylight
01 Jun - 10:12:25 10° NW 10:15:17 16° N 10:18:09 10° NE daylight
01 Jun - 11:55:03 10° NW 11:58:47 23° NNE 12:02:33 10° ENE daylight
01 Jun - 13:36:48 10° NW 13:41:30 82° NE 13:46:14 10° SE daylight
01 Jun - 15:20:24 10° W 15:23:14 16° SW 15:26:05 10° SSW daylight
02 Jun - 05:29:43 10° S 05:33:32 26° SE 05:37:22 10° ENE daylight
02 Jun - 07:11:00 10° WSW 07:15:30 52° NNW 07:20:01 10° NE daylight
02 Jun - 08:55:11 10° WNW 08:58:29 19° NNW 09:01:48 10° NNE daylight
02 Jun - 10:39:01 10° NNW 10:42:03 17° N 10:45:08 10° NE daylight
02 Jun - 12:20:55 10° NW 12:25:16 38° NNE 12:29:39 10° E daylight
02 Jun - 14:03:05 10° WNW 14:07:30 42° SW 14:11:58 10° SSE daylight
